Regional Weather Roundup
Issued by NWS

Home | Current Version | Previous Version | Graphics & Text | Print | Product List | Glossary On
Versions: 1 2 3 4 5 6 7 8 9 10 11 12 13 14 15 16 17 18 19 20 21 22 23 24 25 26 27 28 29 30 31 32 33 34 35 36 37 38 39 40 41 42 43 44 45 46 47 48 49 50
000
ASUS43 KDMX 240007
RWRIA

WEATHER ROUNDUP FOR IOWA
NATIONAL WEATHER SERVICE DES MOINES IA
600 PM CST TUE DEC 23 2014

NOTE: "FAIR" INDICATES FEW OR NO CLOUDS BELOW 12,000 FEET WITH NO
SIGNIFICANT WEATHER AND/OR OBSTRUCTIONS TO VISIBILITY.

* - THESE STATIONS ARE NOT NWS STATIONS...THUS NOT UNDER NWS
QUALITY CONTROL.  THEY ALSO DO NOT REPORT WEATHER SUCH
AS PRECIPITATION OR FOG.

IAZ001>003-012>014-020>022-031>034-043>046-240100-
   NORTHWEST IOWA

CITY           SKY/WX    TMP DP  RH WIND       PRES   REMARKS
CARROLL *      LGT SNOW  34  34 100 NW13      29.80R WCI  25
CHEROKEE *     CLOUDY    34  34 100 N13G20    29.84R FOG     WCI  25
DENISON *      LGT SNOW  34  34 100 NW9       29.82R WCI  26
LE MARS *      CLOUDY    36  34  93 N15G21    29.88R WCI  26
ORANGE CITY *  CLOUDY    36  34  93 N13G22    29.86R WCI  27
SHELDON *      CLOUDY    34  34 100 N14G22    29.85R WCI  24
SIOUX CITY     CLOUDY    38  34  85 NW18      29.87R WCI  28
6HR MIN TEMP:  36; 6HR MAX TEMP:  39; 6HR PCP: TRACE;

SPENCER        CLOUDY    35  33  92 N13       29.82R WCI  26
6HR MIN TEMP:  35; 6HR MAX TEMP:  35; 6HR PCP: TRACE;

STORM LAKE *   CLOUDY    34  34 100 N17       29.82R FOG     WCI  23
$$

IAZ055>058-069>071-079>083-090>094-240100-
   SOUTHWEST IOWA

CITY           SKY/WX    TMP DP  RH WIND       PRES   REMARKS
ATLANTIC *     LGT SNOW  34  34 100 NW14      29.81R WCI  24
AUDUBON *      LGT SNOW  34  28  80 NW8       29.81R WCI  27
CLARINDA *     LGT RAIN  36  34  93 NW10G16   29.83R WCI  28
COUNCIL BLFS * CLOUDY    34  34 100 N14G22    29.83R FOG     WCI  24
CRESTON *      LGT SNOW  34  34 100 N12       29.78R WCI  25
HARLAN  *      LGT SNOW  34  34 100 N15G21    29.85S WCI  24
LAMONI         CLOUDY    36  33  89 N9        29.76R WCI  29
6HR MIN TEMP:  36; 6HR MAX TEMP:  38;

RED OAK *      LGT SNOW  34  34 100 N14G21    29.82R WCI  24
SHENANDOAH *   CLOUDY    34  34 100 N12       29.84R WCI  25
$$

IAZ047>049-059>061-072>074-084-240100-
   CENTRAL IOWA

CITY           SKY/WX    TMP DP  RH WIND       PRES   REMARKS
AMES           LGT SNOW  33  31  92 N13       29.76R FOG     WCI  24
6HR MIN TEMP:  33; 6HR MAX TEMP:  37; 6HR PCP:  0.08;

ANKENY *       MIX PCPN  34  34 100 NW12      29.76R WCI  25
CHARITON *     CLOUDY    36  34  93 NW12      29.75R WCI  27
DES MOINES     FLURRIES  36  32  85 N10       29.77R WCI  28
6HR MIN TEMP:  36; 6HR MAX TEMP:  39; 6HR PCP: TRACE;

GRINNELL*      CLOUDY    36  34  93 NW10      29.74R WCI  28
KNOXVILLE *    CLOUDY    36  34  93 NW10      29.74R WCI  28
MARSHALLTOWN   LGT SNOW  33  32  96 NW7       29.73R FOG     WCI  27
6HR MIN TEMP:  33; 6HR MAX TEMP:  37; 6HR PCP: TRACE;

PELLA *        CLOUDY    37  35  93 NW8       29.76R WCI  30
PERRY *        LGT SNOW  34  34 100 NW9       29.79R WCI  26
$$

IAZ004>006-015-016-023>025-035-036-240100-
   NORTH CENTRAL IOWA

CITY           SKY/WX    TMP DP  RH WIND       PRES   REMARKS
ALGONA *       CLOUDY    34  34 100 N14       29.78R WCI  24
CLARION *      MIX PCPN  34  34 100 N7        29.76R WCI  28
ESTHERVILLE    CLOUDY    34  32  92 N18       29.80R WCI  23
6HR MIN TEMP:  33; 6HR MAX TEMP:  34;

FORT DODGE *   CLOUDY    34  30  86 N7        29.79R WCI  28
MASON CITY     CLOUDY    34  31  88 N12       29.76R WCI  25
6HR MIN TEMP:  33; 6HR MAX TEMP:  34; 6HR PCP: TRACE;

FOREST CITY *  CLOUDY    34  32  93 N10       29.76R WCI  26
IOWA FALLS *   LGT SNOW  34  32  93 NW9       29.74S WCI  26
$$

IAZ007>011-017>019-026>030-037>042-050>054-066-240100-
   NORTHEAST IOWA

CITY           SKY/WX    TMP DP  RH WIND       PRES   REMARKS
CEDAR RAPIDS   LGT RAIN  36  36 100 W8        29.72R WCI  30
6HR MIN TEMP:  36; 6HR MAX TEMP:  39; 6HR PCP: TRACE;

CHARLES CITY * MIX PCPN  34  34 100 NW10      29.72F WCI  26
CLINTON *      CLOUDY    39  34  81 SW8       29.76R WCI  34
DECORAH *      CLOUDY    34  34 100 N8        29.69S WCI  27
DUBUQUE        MIX PCPN  36  36 100 W7        29.70R WCI  30
6HR MIN TEMP:  36; 6HR MAX TEMP:  39; 6HR PCP: TRACE;

MONTICELLO *   CLOUDY    37  37 100 W5        29.71R WCI  34
OELWEIN *      CLOUDY    34  34 100 NW7       29.72R WCI  28
WATERLOO       LGT RAIN  34  33  96 NW9       29.72R WCI  27
6HR MIN TEMP:  34; 6HR MAX TEMP:  37; 6HR PCP:  0.02;

$$

IAZ064-065-067-068-078-240100-
   EAST CENTRAL IOWA

CITY           SKY/WX    TMP DP  RH WIND       PRES   REMARKS
DAVENPORT      CLOUDY    39  33  79 S6        29.74R WCI  35
6HR MIN TEMP:  39; 6HR MAX TEMP:  43;

IOWA CITY      CLOUDY    38  38 100 W6        29.74R WCI  33
6HR MIN TEMP:  38; 6HR MAX TEMP:  41; 6HR PCP:  0.02;

MT. PLEASANT * CLOUDY    38  33  83 SW5       29.74S WCI  34
MUSCATINE *    CLOUDY    41  34  75 SW6       29.75R
QUAD CITIES    CLOUDY    40  33  76 SW7       29.74R
6HR MIN TEMP:  40; 6HR MAX TEMP:  44;

$$

IAZ062-063-075>077-085>089-095>099-240100-
   SOUTHEAST IOWA

CITY           SKY/WX    TMP DP  RH WIND       PRES   REMARKS
BURLINGTON     CLOUDY    41  35  79 NW5       29.74R
6HR MIN TEMP:  40; 6HR MAX TEMP:  46;

FAIRFIELD *    CLOUDY    37  36  93 W5        29.74R WCI  34
FORT MADISON *   N/A     43  37  81 CALM      29.75S
KEOKUK *       CLOUDY    41  34  75 W3        29.73S
OSKALOOSA *    CLOUDY    37  35  94 NW9       29.74R WCI  30
CENTERVILLE *  CLOUDY    37  37 100 W8        29.75R WCI  31
OTTUMWA        CLOUDY    37  36  96 NW10      29.73R WCI  30
6HR MIN TEMP:  37; 6HR MAX TEMP:  40; 6HR PCP:  0.03;

WASHINGTON *   CLOUDY    39  39 100 SW6       29.73S WCI  35
$$

ABBREVIATIONS USED IN REMARKS
   TC - TEMPERATURES IN CELSIUS
  WCI - WIND CHILL INDEX
   HX - HEAT INDEX
  VSB - VISIBILITY
$$



USA.gov is the U.S. government's official web portal to all federal, state and local government web resources and services.